Tracking 29892 objects as of 21-Nov-2024
HD Live streaming from Space Station
objects crossing your sky now

CZ-6A DEB

Track CZ-6A DEB now!
10-day predictions


NORAD ID: 54637
Int'l Code: 2022-151PP
Perigee: 808.8 km
Apogee: 902.6 km
Inclination: 98.8 °
Period: 101.9 minutes
Semi major axis: 7226 km
RCS: Unknown
Launch date: November 11, 2022
Source: People's Republic of China (PRC)
Launch site: Taiyaun Space Center, China (TSC)

Note: This is SATELLITE DEBRIS
Your satellite tracking list
Your tracking list is empty




NASA's NSSDC Master Catalog

Two Line Element Set (TLE):
1 54637U 22151PP  24325.23163003  .00005941  00000-0  31343-2 0  9995
2 54637  98.8336 324.0080 0064865 180.4750 179.6371 14.13157799102762
Source of the keplerian elements: AFSPC